Weather History for KUKI - December, 2014

Change the Weather History Date:

Wednesday, December 24, 2014

  Actual Average Record
Temperature  
Mean Temperature 49 °F 45 °F  
Max Temperature 55 °F 54 °F 74 °F (1967)
Min Temperature 43 °F 36 °F 17 °F (1930)
Degree Days  
Heating Degree Days 16 20  
Month to date heating degree days 262 469  
Since 1 July heating degree days 663 1092  
Cooling Degree Days 0 0  
Month to date cooling degree days 0 0  
Year to date cooling degree days 1290 835  
Moisture  
Dew Point 44 °F    
Average Humidity 78    
Maximum Humidity 100    
Minimum Humidity 56    
Precipitation  
Precipitation 0.11 in 0.25 in 2.66 in (1940)
Month to date precipitation 12.10 5.21  
Year to date precipitation 35.09 35.61  
Since 1 July precipitation 18.46 12.23  
Snow  
Snow 0.00 in - - ()
Month to date snowfall 0.0  
Since 1 July snowfall 0.0  
Snow Depth 0.00 in    
Sea Level Pressure  
Sea Level Pressure 30.06 in    
Wind  
Wind Speed 7 mph (NW)    
Max Wind Speed 23 mph    
Max Gust Speed 36 mph    
Visibility 4 miles    
Events Fog , Rain    
T = Trace of Precipitation, MM = Missing Value Source: NWS Daily Summary

Daily Weather History Graph

Daily Weather History Graph

Search for Another Location

Airport or City:

Trip Planner

Search our weather history database for the weather conditions in past years. The results will help you decide how hot, cold, wet, or windy it might be!

Date:

Astronomy

Dec. 24, 2014 Rise Set
Actual Time 7:29 AM PST 4:55 PM PST
Civil Twilight 6:59 AM PST 5:25 PM PST
Nautical Twilight 6:26 AM PST 5:58 PM PST
Astronomical Twilight 5:53 AM PST 6:31 PM PST
Moon 9:26 AM PST (12/24) 8:24 PM PST (12/24)
Length of Visible Light 10h 25m
Length of Day
9h 25m
Waxing Crescent, 10% of the Moon is Illuminated
Dec 24
Waxing Crescent
Dec 28
First Quarter
Jan 4
Full
Jan 13
Last Quarter
Jan 20
New

Hourly Weather History & Observations

Time (PST) Temp. Windchill Dew Point Humidity Pressure Visibility Wind Dir Wind Speed Gust Speed Precip Events Conditions
12:35 AM 46.0 °F - 45.0 °F 96% 30.14 in 0.2 mi Calm Calm - N/A Fog Fog
12:56 AM 46.9 °F - 46.0 °F 97% 30.12 in 0.2 mi Calm Calm - N/A Fog Fog
1:03 AM 46.9 °F - 46.0 °F 97% 30.13 in 0.2 mi Calm Calm - N/A Fog Fog
1:44 AM 46.9 °F - 46.0 °F 97% 30.12 in 0.2 mi Calm Calm - N/A Fog Fog
1:56 AM 46.9 °F - 46.9 °F 100% 30.11 in 0.2 mi Calm Calm - N/A Fog Fog
2:18 AM 46.9 °F - 46.0 °F 97% 30.12 in 0.2 mi Calm Calm - N/A Fog Fog
2:28 AM 46.9 °F - 46.0 °F 97% 30.11 in 0.5 mi Calm Calm - N/A Fog Fog
2:49 AM 46.9 °F - 46.0 °F 97% 30.11 in 0.2 mi Calm Calm - N/A Fog Fog
2:56 AM 48.0 °F - 46.0 °F 93% 30.09 in 0.5 mi Calm Calm - N/A Fog Fog
3:32 AM 46.9 °F - 46.0 °F 97% 30.09 in 0.2 mi Calm Calm - N/A Fog Fog
3:56 AM 48.0 °F - 46.9 °F 96% 30.08 in 0.2 mi Calm Calm - N/A Fog Fog
4:36 AM 48.0 °F - 46.9 °F 96% 30.07 in 0.5 mi Calm Calm - N/A Fog Fog
4:56 AM 48.0 °F - 46.9 °F 96% 30.06 in 0.8 mi Calm Calm - N/A   Mist
5:56 AM 48.0 °F - 46.9 °F 96% 30.05 in 0.5 mi Calm Calm - N/A Fog Fog
6:56 AM 48.0 °F - 46.9 °F 96% 30.05 in 0.5 mi Calm Calm - N/A Fog Fog
7:56 AM 48.0 °F - 46.9 °F 96% 30.06 in 0.5 mi Calm Calm - N/A Fog Fog
8:04 AM 48.0 °F - 46.9 °F 96% 30.07 in 0.2 mi Calm Calm - N/A Fog Fog
8:23 AM 48.9 °F - 46.9 °F 93% 30.07 in 0.8 mi Calm Calm - N/A   Mist
8:56 AM 48.0 °F - 46.9 °F 96% 30.07 in 0.8 mi Calm Calm - N/A   Mist
9:17 AM 48.9 °F - 46.9 °F 93% 30.07 in 1.5 mi SSE 3.5 mph - 0.00 in Rain Light Rain
9:26 AM 48.9 °F - 48.0 °F 97% 30.07 in 2.0 mi SSE 3.5 mph - 0.00 in   Overcast
9:35 AM 48.9 °F - 48.0 °F 97% 30.06 in 6.0 mi Calm Calm - 0.00 in   Overcast
9:45 AM 48.9 °F - 48.0 °F 97% 30.06 in 10.0 mi SSW 4.6 mph - 0.00 in   Overcast
9:56 AM 50.0 °F - 48.0 °F 93% 30.04 in 10.0 mi Calm Calm - 0.00 in   Overcast
10:54 AM 51.8 °F - 50.0 °F 94% 30.00 in 5.0 mi SE 10.4 mph - 0.00 in   Overcast
10:56 AM 51.1 °F - 48.9 °F 92% 29.99 in 5.0 mi SSE 10.4 mph - 0.00 in Rain Light Rain
11:30 AM 52.0 °F - 51.1 °F 97% 29.96 in 1.8 mi Variable 4.6 mph - 0.05 in Rain Light Rain
11:52 AM 55.4 °F - 48.2 °F 77% 29.98 in 2.0 mi WNW 19.6 mph 27.6 mph 0.10 in Rain Light Rain
11:56 AM 54.0 °F - 48.0 °F 80% 29.97 in 2.5 mi WNW 15.0 mph 29.9 mph 0.11 in Rain Light Rain
12:03 PM 53.1 °F - 46.9 °F 80% 29.98 in 3.0 mi WNW 17.3 mph 27.6 mph 0.00 in Rain Light Rain
12:47 PM 53.1 °F - 45.0 °F 74% 29.98 in 10.0 mi NW 13.8 mph 25.3 mph 0.00 in   Mostly Cloudy
12:56 PM 53.1 °F - 44.1 °F 71% 29.96 in 10.0 mi NW 15.0 mph 36.8 mph 0.00 in   Mostly Cloudy
1:56 PM 53.1 °F - 43.0 °F 69% 29.96 in 10.0 mi WNW 15.0 mph 28.8 mph N/A   Mostly Cloudy
2:56 PM 52.0 °F - 43.0 °F 71% 29.96 in 10.0 mi WNW 19.6 mph 29.9 mph 0.00 in   Partly Cloudy
3:56 PM 51.1 °F - 42.1 °F 71% 29.98 in 10.0 mi NW 16.1 mph - N/A   Partly Cloudy
4:56 PM 50.0 °F - 39.9 °F 68% 30.01 in 10.0 mi NNW 9.2 mph - N/A   Scattered Clouds
5:56 PM 48.0 °F - 37.0 °F 66% 30.04 in 10.0 mi NNW 11.5 mph 21.9 mph N/A   Clear
6:56 PM 48.0 °F - 34.0 °F 58% 30.06 in 10.0 mi NW 15.0 mph - N/A   Clear
7:56 PM 46.9 °F - 33.1 °F 59% 30.08 in 10.0 mi NW 10.4 mph - N/A   Clear
8:56 PM 46.9 °F - 32.0 °F 56% 30.09 in 10.0 mi NW 10.4 mph 19.6 mph N/A   Clear
9:56 PM 44.1 °F 39.5 °F 33.1 °F 65% 30.12 in 10.0 mi NE 8.1 mph - N/A   Clear
10:56 PM 44.1 °F 40.8 °F 33.1 °F 65% 30.13 in 10.0 mi NE 5.8 mph - N/A   Clear
11:56 PM 43.0 °F 41.3 °F 34.0 °F 71% 30.15 in 10.0 mi Variable 3.5 mph - N/A   Clear